Time,TemperatureF,DewpointF,PressureIn,WindDirection,WindDirectionDegrees,WindSpeedMPH,WindSpeedGustMPH,Humidity,HourlyPrecipIn,Conditions,Clouds,dailyrainin,SolarRadiationWatts/m^2,SoftwareType,DateUTC
2013-07-17 00:03:00,74.8,72.0,30.19,East,96,0.0,1.0,90,0.00,,,0.00,0,weatherlink.com 1.10,2013-07-17 04:03:00,
2013-07-17 00:18:00,75.1,72.0,30.19,East,96,0.0,1.0,90,0.00,,,0.00,0,weatherlink.com 1.10,2013-07-17 04:18:00,
2013-07-17 00:33:00,75.0,72.0,30.19,East,96,0.0,0.0,90,0.00,,,0.00,0,weatherlink.com 1.10,2013-07-17 04:33:00,
2013-07-17 00:48:00,74.8,72.0,30.18,East,96,0.0,0.0,91,0.00,,,0.00,0,weatherlink.com 1.10,2013-07-17 04:48:00,
2013-07-17 01:03:00,74.6,72.0,30.18,East,96,0.0,0.0,91,0.00,,,0.00,0,weatherlink.com 1.10,2013-07-17 05:03:00,
2013-07-17 01:18:00,74.3,72.0,30.19,East,96,0.0,0.0,92,0.00,,,0.00,0,weatherlink.com 1.10,2013-07-17 05:18:00,
2013-07-17 01:33:00,74.0,72.0,30.18,East,96,0.0,0.0,92,0.00,,,0.00,0,weatherlink.com 1.10,2013-07-17 05:33:00,
2013-07-17 01:48:00,73.6,71.0,30.18,East,96,0.0,0.0,92,0.00,,,0.00,0,weatherlink.com 1.10,2013-07-17 05:48:00,
2013-07-17 02:03:00,73.1,71.0,30.18,East,96,0.0,0.0,94,0.00,,,0.00,0,weatherlink.com 1.10,2013-07-17 06:03:00,
2013-07-17 02:18:00,73.0,71.0,30.18,East,96,0.0,0.0,94,0.00,,,0.00,0,weatherlink.com 1.10,2013-07-17 06:18:00,
2013-07-17 02:33:00,72.7,71.0,30.18,East,96,0.0,0.0,94,0.00,,,0.00,0,weatherlink.com 1.10,2013-07-17 06:33:00,
2013-07-17 02:48:00,72.3,71.0,30.18,East,96,0.0,0.0,94,0.00,,,0.00,0,weatherlink.com 1.10,2013-07-17 06:48:00,
2013-07-17 03:03:00,71.9,71.0,30.18,East,96,0.0,0.0,95,0.00,,,0.00,0,weatherlink.com 1.10,2013-07-17 07:03:00,
2013-07-17 03:18:00,71.6,70.0,30.18,East,96,0.0,0.0,95,0.00,,,0.00,0,weatherlink.com 1.10,2013-07-17 07:18:00,
2013-07-17 03:33:00,71.5,70.0,30.18,East,96,0.0,0.0,95,0.00,,,0.00,0,weatherlink.com 1.10,2013-07-17 07:33:00,
2013-07-17 03:48:00,71.7,71.0,30.18,East,96,0.0,0.0,96,0.00,,,0.00,0,weatherlink.com 1.10,2013-07-17 07:48:00,
2013-07-17 04:03:00,71.9,71.0,30.18,East,96,0.0,0.0,96,0.00,,,0.00,0,weatherlink.com 1.10,2013-07-17 08:03:00,
2013-07-17 04:18:00,71.9,71.0,30.18,East,96,0.0,0.0,96,0.00,,,0.00,0,weatherlink.com 1.10,2013-07-17 08:18:00,
2013-07-17 04:33:00,71.8,71.0,30.18,East,96,0.0,0.0,96,0.00,,,0.00,0,weatherlink.com 1.10,2013-07-17 08:33:00,
2013-07-17 04:48:00,71.6,70.0,30.19,East,96,0.0,0.0,96,0.00,,,0.00,0,weatherlink.com 1.10,2013-07-17 08:48:00,
2013-07-17 05:03:00,71.6,70.0,30.19,East,96,0.0,0.0,96,0.00,,,0.00,0,weatherlink.com 1.10,2013-07-17 09:03:00,
2013-07-17 05:18:00,71.4,70.0,30.20,East,96,0.0,0.0,96,0.00,,,0.00,0,weatherlink.com 1.10,2013-07-17 09:18:00,
2013-07-17 05:33:00,71.2,70.0,30.20,East,96,0.0,0.0,96,0.00,,,0.00,0,weatherlink.com 1.10,2013-07-17 09:33:00,
2013-07-17 05:48:00,70.9,70.0,30.21,East,96,0.0,0.0,96,0.00,,,0.00,5,weatherlink.com 1.10,2013-07-17 09:48:00,
2013-07-17 06:03:00,71.0,70.0,30.21,East,96,0.0,0.0,97,0.00,,,0.00,9,weatherlink.com 1.10,2013-07-17 10:03:00,
2013-07-17 06:18:00,71.0,70.0,30.21,East,96,0.0,0.0,97,0.00,,,0.00,12,weatherlink.com 1.10,2013-07-17 10:18:00,
2013-07-17 06:33:00,71.2,70.0,30.21,East,96,0.0,0.0,97,0.00,,,0.00,16,weatherlink.com 1.10,2013-07-17 10:33:00,
2013-07-17 06:48:00,71.4,71.0,30.21,East,96,0.0,0.0,97,0.00,,,0.00,19,weatherlink.com 1.10,2013-07-17 10:48:00,
2013-07-17 07:03:00,71.8,71.0,30.21,East,96,0.0,0.0,97,0.00,,,0.00,23,weatherlink.com 1.10,2013-07-17 11:03:00,
2013-07-17 07:18:00,72.2,71.0,30.22,East,96,0.0,0.0,97,0.00,,,0.00,26,weatherlink.com 1.10,2013-07-17 11:18:00,
2013-07-17 07:33:00,73.0,72.0,30.22,East,96,0.0,1.0,97,0.00,,,0.00,32,weatherlink.com 1.10,2013-07-17 11:33:00,
2013-07-17 07:48:00,73.9,73.0,30.22,East,96,0.0,0.0,97,0.00,,,0.00,35,weatherlink.com 1.10,2013-07-17 11:48:00,
2013-07-17 08:03:00,74.8,74.0,30.22,East,96,0.0,0.0,97,0.00,,,0.00,40,weatherlink.com 1.10,2013-07-17 12:03:00,
2013-07-17 08:18:00,76.1,75.0,30.22,East,96,0.0,0.0,96,0.00,,,0.00,42,weatherlink.com 1.10,2013-07-17 12:18:00,
2013-07-17 08:33:00,77.4,76.0,30.22,East,96,0.0,0.0,94,0.00,,,0.00,47,weatherlink.com 1.10,2013-07-17 12:33:00,
2013-07-17 08:48:00,78.4,76.0,30.22,East,96,0.0,0.0,92,0.00,,,0.00,49,weatherlink.com 1.10,2013-07-17 12:48:00,
2013-07-17 09:03:00,80.0,76.0,30.23,East,96,0.0,0.0,88,0.00,,,0.00,54,weatherlink.com 1.10,2013-07-17 13:03:00,
2013-07-17 09:18:00,81.5,77.0,30.23,East,96,0.0,0.0,86,0.00,,,0.00,56,weatherlink.com 1.10,2013-07-17 13:18:00,
2013-07-17 09:34:00,82.9,78.0,30.22,East,96,0.0,0.0,84,0.00,,,0.00,142,weatherlink.com 1.10,2013-07-17 13:34:00,
2013-07-17 09:49:00,85.3,78.0,30.22,East,92,0.0,0.0,79,0.00,,,0.00,615,weatherlink.com 1.10,2013-07-17 13:49:00,
2013-07-17 10:04:00,87.5,79.0,30.22,ESE,110,0.0,0.0,75,0.00,,,0.00,654,weatherlink.com 1.10,2013-07-17 14:04:00,
2013-07-17 10:19:00,88.5,78.0,30.21,East,91,0.0,0.0,72,0.00,,,0.00,698,weatherlink.com 1.10,2013-07-17 14:19:00,
2013-07-17 10:34:00,89.4,78.0,30.21,ENE,63,0.0,0.0,68,0.00,,,0.00,731,weatherlink.com 1.10,2013-07-17 14:34:00,
2013-07-17 10:49:00,90.6,80.0,30.21,WSW,249,0.0,0.0,70,0.00,,,0.00,780,weatherlink.com 1.10,2013-07-17 14:49:00,
2013-07-17 11:04:00,91.3,77.0,30.21,NE,42,0.0,0.0,63,0.00,,,0.00,789,weatherlink.com 1.10,2013-07-17 15:04:00,
2013-07-17 11:19:00,90.9,78.0,30.21,NNE,18,0.0,0.0,66,0.00,,,0.00,758,weatherlink.com 1.10,2013-07-17 15:19:00,
2013-07-17 11:34:00,90.1,78.0,30.21,NNE,15,0.0,1.0,68,0.00,,,0.00,135,weatherlink.com 1.10,2013-07-17 15:34:00,
2013-07-17 11:49:00,90.1,79.0,30.21,NE,38,0.0,2.0,70,0.00,,,0.00,837,weatherlink.com 1.10,2013-07-17 15:49:00,
2013-07-17 12:04:00,91.2,78.0,30.21,WNW,288,0.0,2.0,66,0.00,,,0.00,895,weatherlink.com 1.10,2013-07-17 16:04:00,
2013-07-17 12:19:00,90.8,76.0,30.20,WNW,282,0.0,4.0,63,0.00,,,0.00,905,weatherlink.com 1.10,2013-07-17 16:19:00,
2013-07-17 12:34:00,91.5,77.0,30.20,ENE,69,0.0,3.0,62,0.00,,,0.00,935,weatherlink.com 1.10,2013-07-17 16:34:00,
2013-07-17 12:49:00,91.6,77.0,30.20,WSW,255,2.0,5.0,63,0.00,,,0.00,928,weatherlink.com 1.10,2013-07-17 16:49:00,
2013-07-17 13:04:00,91.2,77.0,30.20,ENE,75,4.0,4.0,63,0.00,,,0.00,905,weatherlink.com 1.10,2013-07-17 17:04:00,
2013-07-17 13:19:00,90.3,76.0,30.19,SE,140,1.0,5.0,63,0.00,,,0.00,933,weatherlink.com 1.10,2013-07-17 17:19:00,
2013-07-17 13:34:00,90.4,76.0,30.19,ENE,63,0.0,5.0,62,0.00,,,0.00,921,weatherlink.com 1.10,2013-07-17 17:34:00,
2013-07-17 13:49:00,91.3,77.0,30.19,WNW,303,0.0,6.0,63,0.00,,,0.00,909,weatherlink.com 1.10,2013-07-17 17:49:00,
2013-07-17 14:04:00,91.5,78.0,30.18,NNW,348,0.0,3.0,64,0.00,,,0.00,888,weatherlink.com 1.10,2013-07-17 18:04:00,
2013-07-17 14:19:00,91.1,78.0,30.18,SW,236,0.0,4.0,65,0.00,,,0.00,856,weatherlink.com 1.10,2013-07-17 18:19:00,
2013-07-17 14:34:00,90.7,77.0,30.18,ESE,108,0.0,3.0,64,0.00,,,0.00,777,weatherlink.com 1.10,2013-07-17 18:34:00,
2013-07-17 14:49:00,91.3,80.0,30.18,NNE,30,1.0,4.0,69,0.00,,,0.00,766,weatherlink.com 1.10,2013-07-17 18:49:00,
2013-07-17 15:04:00,91.9,79.0,30.17,NE,39,0.0,3.0,66,0.00,,,0.00,795,weatherlink.com 1.10,2013-07-17 19:04:00,
2013-07-17 15:19:00,93.0,79.0,30.16,NNW,341,0.0,4.0,64,0.00,,,0.00,763,weatherlink.com 1.10,2013-07-17 19:19:00,
2013-07-17 15:34:00,93.2,79.0,30.16,NE,44,2.0,3.0,63,0.00,,,0.00,717,weatherlink.com 1.10,2013-07-17 19:34:00,
2013-07-17 15:49:00,92.1,77.0,30.15,East,82,0.0,4.0,61,0.00,,,0.00,698,weatherlink.com 1.10,2013-07-17 19:49:00,
2013-07-17 16:04:00,91.7,78.0,30.14,SW,236,0.0,4.0,64,0.00,,,0.00,661,weatherlink.com 1.10,2013-07-17 20:04:00,
2013-07-17 16:19:00,91.2,78.0,30.14,NNW,343,0.0,4.0,66,0.00,,,0.00,619,weatherlink.com 1.10,2013-07-17 20:19:00,
2013-07-17 16:34:00,90.2,78.0,30.14,NE,40,0.0,4.0,67,0.00,,,0.00,571,weatherlink.com 1.10,2013-07-17 20:34:00,
2013-07-17 16:49:00,90.0,78.0,30.13,West,276,5.0,5.0,67,0.00,,,0.00,515,weatherlink.com 1.10,2013-07-17 20:49:00,
2013-07-17 17:04:00,91.0,79.0,30.13,WNW,298,2.0,6.0,68,0.00,,,0.00,468,weatherlink.com 1.10,2013-07-17 21:04:00,
2013-07-17 17:19:00,90.7,78.0,30.12,ENE,68,0.0,4.0,66,0.00,,,0.00,418,weatherlink.com 1.10,2013-07-17 21:19:00,
2013-07-17 17:35:00,90.6,78.0,30.12,WNW,298,0.0,4.0,66,0.00,,,0.00,364,weatherlink.com 1.10,2013-07-17 21:35:00,
2013-07-17 17:50:00,89.8,78.0,30.12,North,355,0.0,3.0,68,0.00,,,0.00,311,weatherlink.com 1.10,2013-07-17 21:50:00,
2013-07-17 18:05:00,88.0,76.0,30.11,NNW,340,0.0,5.0,68,0.00,,,0.00,54,weatherlink.com 1.10,2013-07-17 22:05:00,
2013-07-17 18:20:00,86.3,76.0,30.12,NW,304,0.0,3.0,71,0.00,,,0.00,46,weatherlink.com 1.10,2013-07-17 22:20:00,
2013-07-17 18:35:00,84.9,75.0,30.11,North,9,0.0,2.0,72,0.00,,,0.00,37,weatherlink.com 1.10,2013-07-17 22:35:00,
2013-07-17 18:50:00,83.7,74.0,30.11,WNW,290,0.0,5.0,73,0.00,,,0.00,32,weatherlink.com 1.10,2013-07-17 22:50:00,
2013-07-17 19:05:00,82.7,74.0,30.11,East,81,1.0,4.0,74,0.00,,,0.00,28,weatherlink.com 1.10,2013-07-17 23:05:00,
2013-07-17 19:20:00,81.9,74.0,30.10,WNW,290,0.0,4.0,77,0.00,,,0.00,23,weatherlink.com 1.10,2013-07-17 23:20:00,
2013-07-17 19:35:00,81.1,74.0,30.11,North,355,0.0,2.0,78,0.00,,,0.00,16,weatherlink.com 1.10,2013-07-17 23:35:00,
2013-07-17 19:50:00,80.3,73.0,30.11,WSW,237,0.0,5.0,79,0.00,,,0.00,11,weatherlink.com 1.10,2013-07-17 23:50:00,
2013-07-17 20:05:00,79.4,73.0,30.12,West,281,0.0,4.0,81,0.00,,,0.00,5,weatherlink.com 1.10,2013-07-18 00:05:00,
2013-07-17 20:20:00,78.6,73.0,30.11,West,267,0.0,1.0,82,0.00,,,0.00,0,weatherlink.com 1.10,2013-07-18 00:20:00,
2013-07-17 20:35:00,77.8,72.0,30.12,West,265,0.0,3.0,83,0.00,,,0.00,0,weatherlink.com 1.10,2013-07-18 00:35:00,
2013-07-17 20:50:00,76.9,72.0,30.12,West,265,0.0,0.0,85,0.00,,,0.00,0,weatherlink.com 1.10,2013-07-18 00:50:00,
2013-07-17 21:05:00,75.9,72.0,30.11,West,265,0.0,1.0,87,0.00,,,0.00,0,weatherlink.com 1.10,2013-07-18 01:05:00,
2013-07-17 21:20:00,75.3,72.0,30.12,West,265,0.0,1.0,89,0.00,,,0.00,0,weatherlink.com 1.10,2013-07-18 01:20:00,
2013-07-17 21:35:00,75.3,72.0,30.12,West,265,0.0,1.0,89,0.00,,,0.00,0,weatherlink.com 1.10,2013-07-18 01:35:00,
2013-07-17 21:50:00,75.1,72.0,30.12,West,265,0.0,0.0,90,0.00,,,0.00,0,weatherlink.com 1.10,2013-07-18 01:50:00,
2013-07-17 22:05:00,74.8,72.0,30.12,West,265,0.0,0.0,90,0.00,,,0.00,0,weatherlink.com 1.10,2013-07-18 02:05:00,
2013-07-17 22:20:00,74.6,72.0,30.12,West,265,0.0,0.0,91,0.00,,,0.00,0,weatherlink.com 1.10,2013-07-18 02:20:00,
2013-07-17 22:35:00,74.3,72.0,30.11,West,265,0.0,0.0,92,0.00,,,0.00,0,weatherlink.com 1.10,2013-07-18 02:35:00,
2013-07-17 22:50:00,74.2,72.0,30.11,West,265,0.0,0.0,92,0.00,,,0.00,0,weatherlink.com 1.10,2013-07-18 02:50:00,
2013-07-17 23:05:00,74.2,72.0,30.11,West,269,0.0,1.0,92,0.00,,,0.00,0,weatherlink.com 1.10,2013-07-18 03:05:00,
2013-07-17 23:20:00,74.1,72.0,30.10,West,269,0.0,0.0,92,0.00,,,0.00,0,weatherlink.com 1.10,2013-07-18 03:20:00,
2013-07-17 23:35:00,74.0,72.0,30.10,West,269,0.0,1.0,93,0.00,,,0.00,0,weatherlink.com 1.10,2013-07-18 03:35:00,
2013-07-17 23:50:00,73.9,72.0,30.10,West,269,0.0,1.0,93,0.00,,,0.00,0,weatherlink.com 1.10,2013-07-18 03:50:00,